Regional Weather Roundup
Issued by NWS

Home | Current Version | Previous Version | Graphics & Text | Print | Product List | Glossary Off
Versions: 1 2 3 4 5 6 7 8 9 10 11 12 13 14 15 16 17 18 19 20 21 22 23 24 25 26 27 28 29 30 31 32 33 34 35 36 37 38 39 40 41 42 43 44 45 46 47 48 49 50

000
ASUS43 KTOP 052208
RWRKS

WEATHER ROUNDUP FOR KANSAS
NATIONAL WEATHER SERVICE GOODLAND KS
500 PM CDT SUN JUL 05 2015

NOTE:  "FAIR" INDICATES FEW OR NO CLOUDS BELOW 12,000 FEET WITH NO
SIGNIFICANT WEATHER AND/OR OBSTRUCTIONS TO VISIBILITY.

KSZ001>006-013>018-027>032-041>047-052300-
NORTHWEST KANSAS

CITY           SKY/WX    TMP DP  RH WIND       PRES   REMARKS
GOODLAND       MOSUNNY   97  51  21 S15G23    29.79F
HAYS           SUNNY    100  55  22 S23G31    29.79F HX  99
HILL CITY      SUNNY    103  59  23 S22G35    29.75F HX 103
RUSSELL        LGT RAIN  99  59  26 S23G31    29.78F HX  99
$$

KSZ061>065-074>080-084>089-052300-
SOUTHWEST KANSAS

CITY           SKY/WX    TMP DP  RH WIND       PRES   REMARKS
DODGE CITY     SUNNY     94  57  28 S23G32    29.85F
ELKHART          N/A     97  58  27 S14         N/A  HX  96
GARDEN CITY    MOSUNNY   93  60  33 S22G30    29.83F
GREAT BEND     SUNNY     97  63  32 S18G25    29.82S HX  98
LIBERAL        MOSUNNY   93  61  33 S23G29    29.89F
PRATT          SUNNY     97  55  24 SW20G28   29.86F HX  95
$$

KSZ066>073-081>083-090>101-052300-
SOUTHEAST KANSAS

CITY           SKY/WX    TMP DP  RH WIND       PRES   REMARKS
CHANUTE        MOSUNNY   92  74  55 S10       29.91F HX 101
COFFEYVILLE    MOSUNNY   93  74  53 S13       29.90F HX 103
HUTCHINSON     SUNNY     99  63  30 S22G28    29.84F HX 101
MEDICINE LODGE   N/A     98  61  29 S15G29    29.83F HX  98
NEWTON         MOSUNNY   97  63  32 S18G26    29.88F HX  98
PARSONS        MOSUNNY   92  75  57 SE12      29.92F HX 103
WICHITA INTL   MOSUNNY   99  62  29 S21G28    29.84F HX 100
WICHITA JABRA  MOSUNNY   97  64  33 S17G23    29.85F HX  99
WICHITA MCCONL MOSUNNY   98  66  34 S22G28    29.85F HX 101
WINFIELD       MOSUNNY   97  67  37 S18G30    29.88F HX 101
$$

KSZ007>012-019>026-033>040-048>060-102>105-052300-
NORTHEAST KANSAS

CITY           SKY/WX    TMP DP  RH WIND       PRES   REMARKS
CONCORDIA      SUNNY     97  66  36 S18G31    29.79F HX 100
EMPORIA        SUNNY     92  72  51 S18G25    29.88F HX  99
LAWRENCE       MOSUNNY   91  73  55 S14       29.88F HX  99
MANHATTAN      SUNNY     97  68  38 S16G22    29.82F HX 102
MARYSVILLE     SUNNY     91  75  59 S16G23    29.82F HX 102
OLATHE IND     MOSUNNY   89  75  63 S15       29.92F HX  99
OLATHE EXE     MOSUNNY   87  75  67 S12       29.91F HX  96
SALINA         SUNNY    101  62  27 S20G28    29.80F HX 102
TOPEKA BILLARD MOSUNNY   91  73  55 S15       29.87F HX  99
TOPEKA FORBES  SUNNY     93  73  52 SE13G23   29.87F HX 102
$$


USA.gov is the U.S. government's official web portal to all federal, state and local government web resources and services.